Theta_e
315 315 314 314 314 314 314 314 314 311 312 309 303 303 304 303 303 303 303 303 303 302 302 303 305 308 311 311 311 308 305 305 307 305 308 305 306 306 306 306 307 308 309 310 311
315 315 314 314 314 314 315 314 314 313 310 311 304 302 303 303 303 303 303 303 303 302 303 304 306 308 308 308 307 305 304 306 303 302 304 304 305 305 305 305 305 306 308 309 310
315 314 314 314 314 314 315 314 313 313 309 310 306 302 303 304 305 302 302 303 302 302 303 304 306 306 306 306 305 304 303 303 303 305 303 303 304 304 304 305 306 306 307 309 309
315 315 315 314 314 314 315 314 311 312 309 309 308 303 303 304 306 302 302 303 302 302 302 304 305 305 303 304 304 305 303 303 304 303 303 303 303 303 303 305 305 306 305 308 309
315 315 315 312 313 314 314 314 311 308 307 308 308 303 303 304 303 302 302 303 303 302 302 303 304 304 302 303 303 303 303 303 303 303 303 303 302 302 303 304 304 305 305 306 308
315 315 313 311 310 310 312 313 309 307 307 308 306 303 304 304 302 303 302 303 303 303 303 303 304 305 304 303 302 303 303 303 303 303 303 303 302 302 303 304 304 304 305 306 307
315 316 312 309 309 310 310 312 306 307 308 308 305 303 304 302 302 302 303 302 303 303 303 304 305 304 303 302 303 303 303 303 303 303 302 302 302 300 303 303 304 303 304 305 306
316 316 313 309 307 308 308 308 307 306 306 304 303 304 302 301 302 303 303 302 303 303 304 304 305 304 304 303 305 303 303 303 303 302 303 301 305 303 303 304 304 304 304 303 305
316 316 314 309 306 307 308 308 307 305 305 305 305 303 301 302 303 303 303 303 303 303 303 304 304 304 305 304 303 300 301 305 304 301 300 301 303 303 303 303 303 303 304 304 304
316 316 314 310 307 307 307 308 305 305 307 306 303 305 302 302 303 304 303 303 303 304 304 305 305 300 296 299 302 304 301 303 303 300 300 301 302 302 303 303 303 303 304 304 303
316 315 312 309 307 307 306 309 309 309 301 298 299 299 302 302 304 304 304 304 305 305 301 305 300 299 300 301 301 302 303 303 302 299 299 301 299 301 302 301 300 301 301 301 302
316 315 309 307 307 307 306 307 307 302 300 300 300 301 303 304 304 304 305 304 303 299 303 300 300 301 301 301 302 302 301 300 301 299 298 297 298 299 297 298 300 300 300 301 301
316 315 306 307 307 307 306 306 305 304 302 302 300 302 304 304 303 303 304 303 299 298 297 302 301 301 302 300 302 300 300 300 300 298 296 294 298 298 298 299 300 301 301 300 300
315 313 306 307 307 306 305 305 305 307 298 302 301 302 305 304 303 303 303 304 300 298 300 300 300 301 301 300 298 301 298 299 299 294 295 293 298 298 297 296 297 300 301 301 300
314 306 306 306 306 305 305 304 305 307 302 301 301 302 305 304 303 303 303 303 300 299 297 299 300 300 300 299 298 300 297 298 294 288 290 293 291 297 297 300 299 298 301 301 300
306 307 305 305 305 305 304 304 307 302 301 300 301 301 302 301 302 303 304 303 302 301 299 299 298 297 299 297 297 296 295 293 290 285 292 287 290 299 300 301 298 298 300 301 301
306 305 303 303 304 303 304 307 303 301 297 299 301 302 299 299 302 301 301 298 299 296 293 297 299 297 297 299 298 294 289 291 295 293 298 280 291 299 299 298 297 296 299 300 301
305 303 302 302 302 304 305 301 301 293 294 300 302 302 301 299 299 300 302 298 297 296 291 291 294 293 296 297 297 295 289 293 292 294 294 281 292 300 297 297 297 298 298 300 301
302 301 301 302 303 304 303 297 299 297 300 301 299 295 294 300 297 295 300 297 299 296 295 292 294 295 296 295 294 294 289 291 285 276 286 290 292 296 297 293 296 297 298 299 300
301 301 301 302 302 301 297 298 296 298 301 301 297 295 291 290 298 292 296 299 299 297 294 295 292 290 295 295 293 291 291 292 287 292 290 290 283 296 295 294 292 293 296 298 298
301 302 301 301 300 299 294 291 292 299 302 301 300 299 297 294 296 293 296 300 298 296 295 290 289 291 295 289 289 290 289 288 288 291 291 289 295 289 289 286 288 292 297 298 298
300 297 300 301 298 290 288 289 298 300 302 301 300 296 296 296 296 291 298 297 298 297 298 295 293 290 293 293 293 292 290 292 293 289 286 290 294 289 285 287 291 296 298 298 298
297 299 298 299 292 289 296 297 298 299 299 299 299 300 297 291 291 298 300 299 298 297 296 296 288 285 290 290 291 292 293 290 287 291 289 292 295 287 288 290 296 296 298 298 298
297 292 298 298 296 292 292 291 295 298 300 299 299 300 299 291 293 292 299 299 298 298 299 298 295 288 290 288 286 292 293 293 291 286 293 295 297 295 296 292 294 296 296 296 297
296 295 294 291 293 294 294 293 295 295 298 299 295 297 295 292 294 290 297 298 298 299 299 295 289 293 291 288 285 291 290 290 292 291 295 297 294 292 295 295 295 294 294 294 294
296 296 296 294 296 296 293 295 293 294 296 297 293 297 295 290 294 294 296 297 297 296 297 294 287 287 289 295 296 296 296 293 293 295 294 295 295 293 294 292 291 291 292 292 293
296 296 296 295 294 292 292 296 296 296 297 297 297 297 297 297 297 297 297 297 297 295 295 293 287 287 287 287 286 287 289 294 292 285 291 290 290 288 285 289 290 291 292 293 291
Wind_Speed
13 14 14 14 13 13 13 13 12 12 10 9 7 5 2 1 3 3 3 5 3 2 1 4 7 8 9 6 4 3 4 2 3 5 1 3 1 1 1 3 5 4 3 4 16
13 15 15 14 13 13 12 13 12 12 11 8 7 5 3 2 1 6 7 6 3 0 2 5 7 8 4 4 3 4 4 7 0 1 0 3 1 1 1 3 4 6 7 6 19
13 15 15 15 14 14 13 13 13 12 10 7 6 4 1 0 1 7 7 6 3 1 3 4 6 5 3 3 1 3 4 2 2 1 1 2 1 3 2 4 8 8 11 12 21
13 15 16 17 15 14 13 13 14 12 9 6 5 3 2 1 1 6 6 5 2 2 4 5 5 3 3 2 1 1 1 1 2 1 1 1 5 4 7 4 3 6 9 15 22
13 16 17 18 16 14 14 13 15 12 8 4 3 2 1 1 4 5 5 5 2 2 4 4 5 3 4 4 2 2 1 1 0 1 2 5 5 6 15 11 11 8 9 16 22
13 16 16 16 15 16 14 13 13 8 5 3 2 0 1 1 4 5 4 6 4 3 4 4 3 5 6 3 2 2 2 1 2 3 4 3 3 4 2 3 11 14 11 14 19
14 16 14 14 17 16 13 12 9 5 3 2 0 2 3 2 4 6 3 4 6 5 5 5 6 2 4 3 3 4 1 0 2 2 2 6 4 7 10 8 5 14 14 16 18
15 14 13 14 16 14 12 9 6 4 2 1 2 1 3 3 3 6 4 3 5 7 6 7 7 6 4 7 5 4 4 3 2 7 2 3 7 2 2 5 8 9 14 18 20
15 14 13 14 14 12 10 4 4 4 2 2 2 2 3 2 4 7 5 3 4 5 6 5 3 5 4 3 4 7 1 1 2 6 4 3 6 3 2 4 11 13 14 16 20
14 15 14 13 13 11 8 1 6 4 1 2 3 2 5 5 5 7 4 3 2 4 4 2 4 4 4 5 3 2 2 2 3 6 5 4 13 13 19 17 24 23 22 23 22
14 13 14 12 12 9 7 2 3 1 9 7 6 3 5 3 8 7 3 3 3 4 4 5 6 2 1 1 1 2 1 2 2 4 5 3 9 19 14 14 20 25 22 22 29
13 13 12 11 10 7 5 2 0 6 8 8 7 5 8 6 2 11 5 3 5 3 5 6 3 3 0 4 3 4 2 3 4 3 3 6 17 18 9 5 5 8 11 14 15
13 13 10 10 8 4 3 1 4 5 4 3 6 5 4 6 6 13 9 4 6 5 4 5 1 4 3 5 5 3 3 3 3 7 3 8 8 6 3 5 6 6 9 10 7
14 11 9 7 4 3 1 1 3 4 4 4 4 5 5 2 5 12 8 4 6 3 3 5 5 3 4 4 3 2 3 2 3 5 2 6 4 8 5 9 5 7 6 6 2
11 9 7 5 3 3 1 0 4 4 3 2 3 3 5 5 2 7 11 5 4 2 5 3 4 6 6 2 2 0 3 2 3 4 4 7 4 8 4 6 5 7 5 4 1
8 7 5 4 3 1 1 4 6 6 5 3 3 5 4 8 4 5 4 7 5 4 5 2 2 4 1 2 3 2 2 5 3 3 3 3 3 6 3 3 5 5 7 6 4
7 5 3 3 2 1 4 5 5 4 3 4 3 4 3 5 5 8 4 6 3 5 5 5 3 3 4 1 2 6 6 4 6 4 4 1 1 9 6 6 4 10 14 9 8
5 3 1 2 2 3 5 4 3 2 5 1 3 3 4 6 3 6 3 2 5 5 3 4 6 4 7 3 2 4 5 4 4 2 5 1 5 5 4 9 12 8 11 9 12
3 3 2 0 1 3 2 3 6 5 3 6 3 5 4 3 1 4 4 2 1 2 5 3 4 1 4 3 2 2 3 2 7 2 3 3 7 11 3 6 14 7 11 12 13
4 3 2 1 0 2 4 4 2 2 1 2 4 2 3 3 2 4 2 2 3 2 0 3 3 1 3 2 7 4 2 4 3 2 4 5 5 5 7 8 10 13 21 19 15
4 2 1 1 2 1 3 4 3 3 0 2 4 4 2 2 1 0 2 2 1 2 5 4 4 5 1 2 6 2 2 4 3 3 4 2 6 8 7 3 6 18 23 23 21
2 1 1 2 2 3 3 4 1 0 2 2 3 3 5 5 2 0 3 4 2 5 3 0 4 2 7 1 2 3 6 4 4 5 2 2 8 2 6 7 6 24 38 39 37
2 1 2 3 2 1 1 2 0 1 0 1 2 1 2 4 2 3 2 1 4 2 5 6 2 3 8 4 4 3 4 3 3 2 6 3 6 2 4 4 18 25 34 40 48
1 2 3 4 6 6 4 1 1 1 1 3 3 3 3 3 3 3 3 1 3 1 3 5 4 7 7 7 4 3 4 5 5 3 3 14 25 10 17 13 24 35 31 36 35
2 2 2 1 3 4 3 5 4 1 0 1 4 3 5 2 1 2 2 2 1 2 4 3 5 6 7 6 4 8 8 7 11 8 10 30 18 9 17 17 26 28 32 39 37
1 3 4 3 2 2 2 4 5 2 4 2 4 4 4 5 5 6 4 3 5 1 4 0 3 2 5 9 14 19 14 17 20 18 17 25 28 15 16 20 23 30 35 31 27
4 6 4 1 1 3 2 3 4 6 1 0 5 4 2 4 5 5 8 7 6 5 5 4 3 3 6 3 5 7 13 18 7 4 8 8 7 5 7 18 23 32 34 21 34
Wind_Direction
12 9 7 2 359 357 352 352 355 355 353 354 353 344 315 189 53 14 344 0 345 315 134 161 157 154 163 159 147 130 65 199 232 163 237 13 129 70 142 158 187 205 221 244 186
357 355 353 350 348 345 343 342 340 343 342 341 349 349 338 205 222 19 5 358 354 33 139 157 151 149 154 153 146 110 124 221 13 129 215 321 316 214 196 192 226 226 226 214 183
348 350 350 347 341 341 334 335 333 328 332 325 340 357 36 170 159 4 0 358 1 102 156 150 148 153 120 141 117 138 182 170 150 47 291 288 253 309 211 239 225 226 221 201 190
344 347 345 341 335 331 330 328 330 321 319 312 322 336 14 75 241 353 0 5 18 98 144 143 152 135 102 135 82 112 70 93 156 324 330 269 301 278 227 226 256 249 232 215 203
337 340 340 338 334 326 323 324 327 320 315 302 306 307 280 91 35 10 10 21 43 111 131 141 147 137 131 117 97 91 141 56 13 334 325 301 286 280 269 264 253 249 233 218 215
329 333 337 344 344 335 321 321 327 326 318 305 312 260 250 124 25 17 30 35 42 109 122 133 125 120 110 87 101 103 96 61 6 348 338 340 295 340 286 312 246 235 231 222 222
323 326 331 338 337 340 330 323 325 335 328 324 97 81 87 106 30 19 34 52 59 79 114 107 118 98 109 97 91 105 60 33 34 1 336 328 261 234 264 280 281 232 234 231 227
319 320 324 330 332 338 337 329 338 339 355 61 114 134 102 70 33 13 27 55 74 81 92 99 104 92 54 111 42 42 46 30 14 359 355 5 275 262 259 272 262 251 248 241 232
313 310 317 325 333 339 339 341 355 34 60 62 28 144 86 32 23 15 35 75 85 95 98 101 87 79 67 63 22 17 199 340 325 36 323 43 279 280 260 300 282 271 267 253 243
299 304 313 320 331 336 339 278 64 23 340 42 31 120 32 351 12 9 34 71 95 113 90 69 60 71 33 58 218 286 11 311 278 343 354 292 270 279 279 283 279 280 273 267 255
293 298 310 316 327 333 342 274 284 343 61 75 41 54 27 34 41 22 41 76 83 73 44 21 66 71 23 50 124 119 70 307 291 13 337 296 288 287 296 266 272 280 281 272 261
289 297 306 312 322 330 337 310 134 140 83 58 57 60 42 41 56 38 43 63 53 61 346 24 72 332 337 29 73 61 74 317 298 18 1 357 296 283 292 259 258 298 304 298 283
283 290 298 307 319 323 1 66 149 143 84 41 35 28 17 31 42 13 27 50 77 56 19 108 48 358 68 32 37 48 95 10 261 327 70 324 300 323 313 308 276 295 316 319 278
277 277 292 306 304 315 316 17 172 164 75 304 351 9 3 47 49 27 26 54 41 145 72 75 348 55 61 68 40 31 356 34 14 38 279 13 277 299 317 307 285 283 312 342 248
261 274 289 292 286 300 293 170 148 146 28 315 339 1 28 68 349 13 29 57 73 50 81 269 18 31 54 7 25 151 31 60 82 90 53 350 67 273 336 322 314 303 283 321 4
251 267 278 277 277 269 230 144 134 47 257 345 323 349 33 22 27 0 52 65 90 90 46 91 46 53 61 54 49 68 71 42 58 94 29 255 105 283 259 239 320 339 285 272 250
250 262 270 262 228 194 160 141 46 131 340 296 357 21 91 358 16 22 31 20 76 61 3 358 18 1 28 33 18 53 48 342 358 8 224 260 21 248 288 282 272 288 312 263 241
244 273 253 240 191 160 153 57 98 228 221 75 34 59 71 358 23 348 62 67 39 78 90 99 333 11 345 63 179 44 128 144 218 281 279 2 241 255 243 298 293 292 310 278 246
251 246 248 265 152 161 159 73 208 193 151 142 83 70 328 349 148 50 20 156 76 96 127 102 296 340 41 24 67 269 41 169 99 67 32 274 293 295 329 321 19 312 305 289 256
219 209 201 233 200 173 78 229 130 239 210 111 135 131 175 280 6 51 354 290 104 38 296 186 12 278 288 125 39 121 149 35 7 9 306 292 280 239 321 321 342 1 357 335 310
201 191 348 169 150 148 148 212 233 227 200 91 144 135 153 179 127 296 223 304 117 112 79 131 94 283 30 185 182 32 13 42 123 135 188 275 266 215 225 233 308 325 355 8 5
235 70 23 147 46 34 104 177 220 69 114 84 100 112 166 157 117 260 229 219 186 145 98 69 131 224 225 134 172 165 190 154 129 268 227 179 270 300 222 249 300 333 332 332 331
242 121 31 179 125 30 78 117 238 296 94 112 91 53 155 141 52 219 240 327 173 143 165 174 334 1 340 9 355 218 204 140 115 91 204 168 256 258 248 242 329 324 326 322 323
216 37 59 78 81 127 144 212 4 246 73 90 103 91 111 46 35 204 227 230 224 178 142 160 163 173 202 207 141 188 198 205 145 143 246 236 276 291 291 305 320 318 326 327 323
62 91 91 316 11 110 123 141 153 160 134 135 19 166 154 124 53 237 276 307 285 237 173 130 204 207 242 227 191 235 215 210 209 214 221 269 259 296 294 306 317 329 328 325 331
99 138 96 90 110 101 18 222 161 228 140 238 149 179 157 156 182 197 166 195 223 296 174 175 266 85 282 245 246 262 254 231 238 245 253 262 277 283 319 356 344 334 326 334 346
96 111 110 61 102 87 224 172 208 146 196 69 161 121 179 236 234 265 242 257 244 180 195 164 132 40 270 323 327 301 233 230 219 191 214 240 250 0 338 337 334 325 320 318 331